Home > Weather > Port Sudan > Past weeks

Flag for Sudan Weather for the Past 2 Weeks in Port Sudan, Sudan

Now
102 °F

Sunny.


Feels Like: 101 °F
Forecast: 75 / 99 °F
Wind: 21 mph from West

Location: Jeddah King Abdul Aziz International Airport

Current Time: May 3, 2016 at 2:06:50 PM

Latest Report: May 3, 2016 at 1:00 PM


Visibility: 10 mi

Pressure: 29.74 "Hg

Humidity: 21%

Dew Point: 55 °F

Location of Port SudanLocation

Historic Weather in Port Sudan — Graph

°F

Port Sudan Temperature Yesterday

Maximum temperature yesterday: 100 °F (at 2:00 PM)
Minimum temperature yesterday: 84 °F (at 6:00 AM)
Average temperature yesterday: 93 °F

High & Low Weather Summary for the Past Weeks

 TemperatureHumidityPressure
High104 °F (Apr 23, 2:00 PM)70% (Apr 20, 7:00 AM)29.86 "Hg (Apr 20, 7:00 AM)
Low82 °F (Apr 20, 6:00 AM)16% (Apr 23, 2:00 PM)29.65 "Hg (Apr 23, 4:00 PM)
Average91 °F42%29.75 "Hg
* Reported Apr 18 12:00 Noon — May 3 12:00 Noon, Port Sudan, Weather by CustomWeather, © 2016

Note: Actual official high and low records may vary slightly from our data, if they occured in-between our weather recording intervals... More about our weather records

Advertising

Port Sudan Weather History for the Previous 24 Hours

Scroll right to see more
 ConditionsComfort  
Time TempWeatherWind HumidityBarometerVisibility
12:00 PM
Tue, May 3
104 °FSunny.13 mph16%29.77 "Hg10 mi
11:00 AM102 °FSunny.15 mph20%29.77 "Hg10 mi
10:00 AM100 °FSunny.13 mph21%29.80 "Hg10 mi
9:00 AM97 °FSunny.13 mph28%29.80 "Hg10 mi
8:00 AM93 °FSunny.8 mph32%29.80 "Hg10 mi
7:00 AM88 °FSunny.No wind40%29.80 "Hg10 mi
6:00 AM86 °FSunny.No wind43%29.80 "Hg10 mi
5:00 AM86 °FClear.No wind46%29.77 "Hg10 mi
4:00 AM86 °FClear.No wind46%29.77 "Hg10 mi
3:00 AM86 °FClear.No wind46%29.77 "Hg10 mi
2:00 AM88 °FClear.No wind43%29.77 "Hg10 mi
1:00 AM90 °FClear.5 mph41%29.77 "Hg10 mi
12:00 AM91 °FClear.5 mph41%29.80 "Hg10 mi
11:00 PM
Mon, May 2
91 °FClear.7 mph44%29.80 "Hg10 mi
10:00 PM91 °FPassing clouds.7 mph41%29.80 "HgN/A
9:00 PM91 °FPassing clouds.6 mph41%29.77 "HgN/A
8:00 PM91 °FPassing clouds.12 mph41%29.74 "HgN/A
7:00 PM93 °FPassing clouds.8 mph39%29.74 "HgN/A
6:00 PM95 °FPassing clouds.6 mph36%29.71 "HgN/A
5:00 PM97 °FPassing clouds.15 mph32%29.71 "HgN/A
4:00 PM99 °FScattered clouds.12 mph31%29.71 "HgN/A
3:00 PM99 °FPassing clouds.15 mph29%29.74 "HgN/A
2:00 PM100 °FPassing clouds.14 mph25%29.74 "HgN/A
Weather by CustomWeather, © 2016

See weather overviewHow to use our weather pages